Nashua, NH

10:45 AM EST on December 13, 2019 (GMT -0500)
Boire

Weather History for KASH - November, 2019

Change the Weather History Date:

Sunday, November 17, 2019

  Actual Average Record
Temperature  
Mean Temperature 24 °F -  
Max Temperature 35 °F 46 °F 66 °F (2006)
Min Temperature 12 °F 25 °F 2 °F (1967)
Degree Days  
Heating Degree Days 42    
Moisture  
Dew Point 18 °F    
Average Humidity 68    
Maximum Humidity 88    
Minimum Humidity 52    
Precipitation  
Precipitation 0.00 in - - ()
Sea Level Pressure  
Sea Level Pressure 30.40 in    
Wind  
Wind Speed 4 mph ()    
Max Wind Speed 8 mph    
Max Gust Speed -    
Visibility 10.0 miles    
Events      
Averages and records for this station are not official NWS values.
T = Trace of Precipitation, MM = Missing Value Source: Averaged Metar Reports

Daily Weather History Graph

Daily Weather History Graph

Search for Another Location

Airport or City:

Astronomy

Nov. 17, 2019 Rise Set
Actual Time 6:40 AM EST 4:21 PM EST
Civil Twilight 6:09 AM EST 4:52 PM EST
Nautical Twilight 5:35 AM EST 5:26 PM EST
Astronomical Twilight 5:01 AM EST 5:59 PM EST
Moon 8:52 PM EST (11/17) 11:25 AM EST (11/17)
Length of Visible Light 10h 42m
Length of Day
9h 41m
Waning Gibbous, 73% of the Moon is Illuminated
Nov 17
Waning Gibbous
Nov 19
Last Quarter
Nov 26
New
Dec 4
First Quarter
Dec 12
Full

Hourly Weather History & Observations

Time (EST) Temp. Windchill Dew Point Humidity Pressure Visibility Wind Dir Wind Speed Gust Speed Precip Events Conditions
12:56 AM 19.0 °F 13.9 °F 3.9 °F 52% 30.53 in 10.0 mi WNW 3.5 mph - N/A   Clear
1:56 AM 16.0 °F 8.8 °F 6.1 °F 65% 30.53 in 10.0 mi WNW 4.6 mph - N/A   Clear
2:56 AM 12.9 °F 5.2 °F 6.1 °F 74% 30.53 in 10.0 mi NNW 4.6 mph - N/A   Clear
3:56 AM 12.0 °F 4.1 °F 6.1 °F 77% 30.53 in 10.0 mi NW 4.6 mph - N/A   Clear
4:56 AM 14.0 °F 6.5 °F 6.1 °F 71% 30.53 in 10.0 mi WNW 4.6 mph - N/A   Clear
5:56 AM 14.0 °F 3.9 °F 7.0 °F 74% 30.53 in 10.0 mi WNW 6.9 mph - N/A   Clear
6:56 AM 17.1 °F 10.0 °F 6.1 °F 62% 30.52 in 10.0 mi NW 4.6 mph - N/A   Clear
7:56 AM 18.0 °F 9.8 °F 8.1 °F 65% 30.52 in 10.0 mi WNW 5.8 mph - N/A   Clear
8:56 AM 25.0 °F 18.1 °F 10.9 °F 55% 30.51 in 10.0 mi North 5.8 mph - N/A   Clear
9:56 AM 28.0 °F 21.7 °F 14.0 °F 56% 30.52 in 10.0 mi North 5.8 mph - N/A   Clear
10:56 AM 30.9 °F 24.3 °F 18.0 °F 59% 30.47 in 10.0 mi NNW 6.9 mph - N/A   Mostly Cloudy
11:30 AM 32.0 °F - 17.6 °F 55% 30.42 in 10.0 mi Calm Calm - N/A   Mostly Cloudy
11:56 AM 33.1 °F 28.7 °F 18.0 °F 54% 30.44 in 10.0 mi NE 4.6 mph - N/A   Overcast
12:56 PM 34.0 °F 29.8 °F 19.9 °F 56% 30.41 in 10.0 mi North 4.6 mph - N/A   Overcast
1:56 PM 35.1 °F 32.2 °F 24.1 °F 64% 30.39 in 10.0 mi NNE 3.5 mph - N/A   Overcast
2:20 PM 35.6 °F 29.2 °F 24.8 °F 65% 30.36 in 10.0 mi NE 8.1 mph - N/A   Overcast
2:56 PM 35.1 °F 30.1 °F 25.0 °F 67% 30.38 in 10.0 mi NNE 5.8 mph - N/A   Overcast
3:56 PM 35.1 °F 30.1 °F 25.0 °F 67% 30.35 in 10.0 mi Variable 5.8 mph - N/A   Overcast
4:56 PM 34.0 °F 31.0 °F 25.0 °F 70% 30.33 in 10.0 mi NE 3.5 mph - N/A   Overcast
6:56 PM 33.1 °F 26.9 °F 26.1 °F 75% 30.30 in 10.0 mi NNE 6.9 mph - N/A   Mostly Cloudy
7:56 PM 33.1 °F 27.7 °F 27.0 °F 78% 30.29 in 10.0 mi Variable 5.8 mph - 0.00 in   Overcast
8:56 PM 32.0 °F 26.4 °F 28.9 °F 88% 30.27 in 10.0 mi Variable 5.8 mph - 0.00 in   Overcast
9:56 PM 32.0 °F 25.6 °F 28.0 °F 85% 30.24 in 10.0 mi NNE 6.9 mph - 0.00 in   Overcast
10:03 PM 32.0 °F 26.4 °F 28.4 °F 87% 30.21 in 10.0 mi North 5.8 mph - N/A   Overcast
10:56 PM 32.0 °F 26.4 °F 25.0 °F 75% 30.21 in 10.0 mi NNE 5.8 mph - N/A   Overcast
11:56 PM 33.1 °F 28.7 °F 24.1 °F 70% 30.18 in 10.0 mi North 4.6 mph - N/A   Overcast